Norfolk NAS, VA

3:31 PM EDT on October 22, 2019 (GMT -0400)
Norfolk Naval Station / Chambers Field

Weather History for KNGU - September, 2019

Change the Weather History Date:

Sunday, September 15, 2019

  Actual Average Record
Temperature  
Mean Temperature 76 °F -  
Max Temperature 84 °F 77 °F 91 °F (2011)
Min Temperature 70 °F 65 °F 57 °F (2015)
Cooling Degree Days 11    
Growing Degree Days 26 (Base 50)    
Moisture  
Dew Point 71 °F    
Average Humidity 86    
Maximum Humidity 100    
Minimum Humidity 63    
Precipitation  
Precipitation 0.00 in - - ()
Sea Level Pressure  
Sea Level Pressure 30.14 in    
Wind  
Wind Speed 3 mph (East)    
Max Wind Speed 9 mph    
Max Gust Speed -    
Visibility 9 miles    
Events      
Averages and records for this station are not official NWS values.
T = Trace of Precipitation, MM = Missing Value Source: NWS Daily Summary

Daily Weather History Graph

Daily Weather History Graph

Search for Another Location

Airport or City:

Astronomy

Sep. 15, 2019 Rise Set
Actual Time 6:47 AM EDT 7:13 PM EDT
Civil Twilight 6:21 AM EDT 7:39 PM EDT
Nautical Twilight 5:50 AM EDT 8:09 PM EDT
Astronomical Twilight 5:19 AM EDT 8:40 PM EDT
Moon 8:21 PM EDT (9/15) 7:54 AM EDT (9/15)
Length of Visible Light 13h 17m
Length of Day
12h 25m
Full, 98% of the Moon is Illuminated
Sep 15
Full
Sep 21
Last Quarter
Sep 28
New
Oct 5
First Quarter
Oct 13
Full

Hourly Weather History & Observations

Time (EDT) Temp. Heat Index Dew Point Humidity Pressure Visibility Wind Dir Wind Speed Gust Speed Precip Events Conditions
12:59 AM 71.1 °F - 71.1 °F 100% 30.19 in 9.0 mi Calm Calm - N/A   Overcast
1:59 AM 71.1 °F - 71.1 °F 100% 30.18 in 7.0 mi Calm Calm - N/A   Overcast
2:59 AM 71.1 °F - 71.1 °F 100% 30.17 in 8.0 mi Calm Calm - N/A   Overcast
3:59 AM 70.0 °F - 70.0 °F 100% 30.17 in 7.0 mi Calm Calm - N/A   Overcast
4:59 AM 71.1 °F - 70.0 °F 96% 30.16 in 7.0 mi Calm Calm - N/A   Overcast
5:59 AM 70.0 °F - 70.0 °F 100% 30.16 in 8.0 mi Calm Calm - N/A   Mostly Cloudy
6:59 AM 70.0 °F - 70.0 °F 100% 30.17 in 7.0 mi Calm Calm - N/A   Mostly Cloudy
7:59 AM 73.9 °F - 73.0 °F 97% 30.18 in 8.0 mi Variable 3.5 mph - N/A   Mostly Cloudy
8:59 AM 77.0 °F - 73.0 °F 88% 30.18 in 10.0 mi SE 6.9 mph - N/A   Mostly Cloudy
9:59 AM 80.1 °F 83.8 °F 72.0 °F 76% 30.18 in 10.0 mi Variable 4.6 mph - N/A   Mostly Cloudy
10:59 AM 82.0 °F 86.7 °F 72.0 °F 71% 30.16 in 10.0 mi Calm Calm - N/A   Mostly Cloudy
11:59 AM 82.9 °F 88.0 °F 72.0 °F 69% 30.16 in 10.0 mi North 8.1 mph - N/A   Scattered Clouds
12:59 PM 82.9 °F 87.5 °F 71.1 °F 67% 30.15 in 10.0 mi ENE 9.2 mph - N/A   Mostly Cloudy
1:59 PM 82.0 °F 86.7 °F 72.0 °F 71% 30.14 in 10.0 mi ENE 8.1 mph - N/A   Mostly Cloudy
2:59 PM 82.9 °F 86.5 °F 69.1 °F 63% 30.12 in 10.0 mi ENE 8.1 mph - N/A   Mostly Cloudy
3:59 PM 82.9 °F 88.0 °F 72.0 °F 69% 30.10 in 10.0 mi NE 8.1 mph - N/A   Mostly Cloudy
4:59 PM 82.0 °F 85.5 °F 69.1 °F 65% 30.09 in 10.0 mi ENE 8.1 mph - N/A   Mostly Cloudy
5:59 PM 80.1 °F 83.6 °F 71.1 °F 74% 30.10 in 10.0 mi ENE 8.1 mph - N/A   Mostly Cloudy
6:59 PM 78.1 °F - 72.0 °F 81% 30.10 in 10.0 mi East 6.9 mph - N/A   Mostly Cloudy
7:59 PM 75.9 °F - 73.0 °F 91% 30.10 in 10.0 mi East 4.6 mph - N/A   Mostly Cloudy
8:59 PM 75.0 °F - 72.0 °F 90% 30.11 in 10.0 mi SE 3.5 mph - N/A   Mostly Cloudy
9:59 PM 73.0 °F - 72.0 °F 96% 30.12 in 10.0 mi Calm Calm - N/A   Scattered Clouds
10:59 PM 72.0 °F - 71.1 °F 97% 30.10 in 10.0 mi SE 3.5 mph - N/A   Scattered Clouds
11:59 PM 72.0 °F - 72.0 °F 100% 30.11 in 9.0 mi Calm Calm - N/A   Scattered Clouds